If you wish to contribute or participate in the discussions about articles you are invited to join SKYbrary as a registered user

 Actions

Stony Rapids Airport

From SKYbrary Wiki

CYSF
Airport
ICAO: CYSF – IATA: YSF
Summary
Name Stony Rapids Airport
Region North America
Territory Canada CA.gif
Location Stony Rapids, Saskatchewan
Serving Stony Rapids
Elevation 244.145 m <br />801 ft244.145 m <br />
Coordinates 59° 15' 4.10" N, 105° 50' 29.75" W
Runways
Designator Length Width Surface ROPS
6/24 1539 m5,049.213 ft <br /> 30 m98.425 ft <br /> TREATED GR yes/yes


METAR
Observation CYSF 160103Z AUTO 08008KT 4SM -SN BKN011 OVC028 M10/M11 A2968 RMK SLP076
Station Stony Rapids Airport
Date/Time 16 January 2021 01:03:00
Wind direction 80°
Wind speed 08 kts
Lowest cloud amount broken clouds
Temperature
Dew point
Humidity 92%
QNH hPa
Weather condition light snow

CFIT
Tag(s) Altimeter Temperature Error Correction

Airport serving Stony Rapids community in Saskatchewan, Canada. The airport is located on the southern outskirts of the town.

Climatology

Humid Continental climate (Köppen climate classification Dfc)

Maps

Terrain

Loading map...

Airport Layout

Loading map...


Accidents & Serious Incidents at or in vicinity of CYSF

None on SKYbrary